Simultaneous Nadir Overpasses (SNOs) Predictions

Prediction of SNOs between METOP-A and TERRA Satellite Orbit:

Table of predicted SNOs for the next 14.0 days since TLE Epoch: 9/15/2018
Index Date (METOP-A) Time (METOP-A) Lat,Lon (METOP-A) SZA (METOP-A ) Date (TERRA) Time (TERRA) Lat,Lon (TERRA) SZA (TERRA ) Distance(km) Time Diff (sec)
1 09/15/2018 21:07:04 -81.43, 92.63 98.23 09/15/2018 21:07:11 -81.42, 92.76 98.21 2.20 7
2 09/15/2018 21:57:43 81.43, -99.42 81.86 09/15/2018 21:56:37 81.43, -99.46 81.83 0.78 66
3 09/18/2018 16:41:19 -81.43, 159.22 97.10 09/18/2018 16:41:23 -81.43, 159.31 97.09 1.53 4
4 09/18/2018 17:31:58 81.43, -32.84 82.99 09/18/2018 17:30:49 81.43, -32.95 82.95 1.93 69
5 09/21/2018 11:25:02 81.42, 55.31 83.65 09/21/2018 11:26:16 81.29, 55.43 83.62 14.15 74
6 09/21/2018 12:15:35 -81.43,-134.20 95.97 09/21/2018 12:15:36 -81.43,-134.31 95.98 1.84 1
7 09/21/2018 13:06:15 81.43, 33.34 84.07 09/21/2018 13:05:02 81.43, 33.40 84.05 1.08 73
8 09/24/2018 06:59:11 81.43, 124.68 85.11 09/24/2018 07:00:21 81.43, 124.69 85.15 0.88 70
9 09/24/2018 07:49:51 -81.43, -67.62 94.84 09/24/2018 07:49:48 -81.43, -67.71 94.84 1.60 3
10 09/27/2018 02:33:26 81.43,-168.76 86.25 09/27/2018 02:34:32 81.43,-168.91 86.26 2.57 66




NCC Satellite Simultaneous Nadir Overpasses (SNOs) Prediction Service
